16:20
Airports
History
Links
Donate
Help keep this website running!
PayPal
Bitcoin
This page is community maintained. The information is intended for PC simulator navigation or reference.
Always use approved charts for navigation.
CZUM
CHURCHILL FALLS
CHURCHILL FALLS (CZUM)
Newfoundland and Labrador, Canada
(U)
Lat/Lng:53° 33' 45.45" N / 64° 6' 21.37" W
53.562625 / -64.105935
Elevation:1442'ft / 440mMSL
ID / ICAO:CZUM
Runways:1
Longest:13-31
Asphalt 1,674m / 5,491ft
METAR16:00 GMT 2018-02-24
Altimeter: 29.69
Visibility: 9.0 statute miles
Wind: 13 knots (from 300°)
Temp: -18°c / -0°f
Humidity: 54.0%

METAR: CZUM 241600Z AUTO 30013KT 9SM CLR M18/M25 A2969 RMK SLP096

(Powered by phpweather)
Airport Radio Frequencies
AWOS: 122.55
CTAF: 123.5
Nearby VORs <50NM
Nearby NDBs
Runway 13 / 31
Dimensions:1673.7 x 45.7m 5491' x 150'ft
Surface:Asphalt
Edge Lights:Medium intensity
Runway 13 [A]Runway 31 [B]
Heading:104°TH 284°TH
Lat:
Lng:
53° 33' 52.26"N
64° 7' 5.44"W
53° 33' 38.64"N
64° 5' 37.29"W
ALS:MALSMALS
TDZ:Yes, lighted
User Notes and Comments
53° 33' 45.45" N / 64° 6' 21.37" W
Distance To
Airport ID:
Nearby Airports
(U) WABUSH 122.3 NM
CYWK ( WX ) WSW 248°
(U) SCHEFFERVILLE 138.8 NM
CYKL ( WX ) NW 308°
(C) Goose Bay 152.3 NM
CYYR ( WX ) E 96°
(U) HAVRE ST PIERRE 227.6 NM
CYGV ( WX ) S 174°
(C) Rigolet 234.0 NM
CCZ2 E 79°
(C) SEPT ILES 248.3 NM
CYZV ( WX ) SSW 201°
(U) NATASHQUAN 253.1 NM
CYNA SSE 157°
VFR Chart
Flight Planning at SkyVector.com